Temp
-6 -6 -6 -8 -6 -6 -7 -6 -7 -7 -7 -6 -6 -5 -5 -5 -4 -3 -3 -3 -3 -4 -4 -4 -4 -4 -4 -4 -4 -5 -4 -4 -4 -5 -5 -5 -5 -6 -6 -6 -6 -6 -6 -6
-6 -6 -7 -8 -6 -7 -7 -7 -6 -7 -6 -7 -6 -5 -5 -4 -4 -3 -4 -3 -4 -4 -4 -4 -4 -4 -4 -4 -4 -4 -4 -4 -4 -5 -5 -5 -5 -6 -6 -6 -6 -6 -6 -6
-6 -6 -7 -7 -8 -7 -6 -6 -7 -7 -7 -6 -6 -5 -5 -5 -4 -4 -4 -3 -4 -4 -4 -4 -4 -4 -4 -4 -4 -4 -4 -4 -4 -5 -5 -5 -5 -6 -6 -6 -6 -6 -6 -6
-6 -7 -7 -7 -8 -7 -7 -6 -7 -7 -6 -6 -6 -6 -5 -5 -5 -4 -4 -4 -4 -3 -5 -4 -4 -4 -4 -4 -4 -4 -4 -4 -4 -4 -4 -5 -5 -5 -6 -6 -7 -7 -7 -7
-4 -7 -7 -8 -6 -7 -7 -7 -7 -6 -6 -6 -7 -6 -6 -5 -5 -4 -4 -3 -3 -3 -3 -3 -4 -4 -3 -3 -3 -3 -4 -4 -4 -4 -5 -5 -5 -5 -6 -7 -7 -7 -7 -7
-6 -6 -6 -6 -8 -8 -8 -7 -7 -7 -6 -6 -6 -6 -5 -4 -4 -5 -4 -3 -3 -3 -3 -4 -4 -3 -3 -3 -3 -4 -4 -4 -4 -4 -5 -5 -5 -5 -6 -7 -7 -6 -6 -7
-6 -6 -6 -7 -8 -7 -7 -7 -7 -7 -5 -5 -5 -5 -5 -5 -4 -4 -4 -3 -3 -3 -3 -4 -4 -4 -4 -4 -4 -4 -4 -4 -5 -5 -5 -5 -5 -6 -7 -7 -7 -6 -6 -6
-5 -5 -5 -7 -7 -7 -7 -7 -7 -6 -4 -5 -5 -5 -5 -5 -4 -4 -4 -3 -3 -3 -3 -4 -4 -4 -4 -4 -4 -4 -4 -4 -5 -5 -5 -5 -6 -6 -6 -7 -7 -7 -7 -7
-5 -4 -5 -6 -7 -7 -7 -6 -6 -6 -5 -5 -6 -5 -5 -4 -4 -4 -3 -3 -4 -4 -3 -4 -4 -5 -4 -4 -4 -4 -4 -5 -5 -5 -6 -6 -6 -6 -7 -7 -7 -7 -7 -7
-5 -6 -6 -6 -7 -7 -7 -6 -7 -6 -6 -6 -6 -6 -5 -5 -4 -3 -4 -3 -3 -4 -4 -4 -3 -4 -4 -5 -5 -5 -5 -5 -5 -5 -6 -7 -7 -7 -7 -8 -7 -7 -7 -8
-6 -6 -6 -7 -7 -7 -7 -7 -6 -6 -6 -5 -6 -6 -6 -6 -5 -4 -4 -3 -3 -3 -4 -4 -4 -4 -5 -5 -5 -5 -5 -5 -5 -6 -6 -7 -7 -7 -8 -8 -8 -8 -8 -8
-6 -6 -6 -6 -6 -7 -7 -6 -6 -6 -6 -6 -5 -6 -6 -6 -6 -5 -5 -4 -3 -4 -4 -4 -4 -5 -5 -5 -5 -5 -6 -5 -5 -6 -7 -7 -8 -8 -8 -8 -8 -8 -8 -8
-6 -7 -6 -8 -7 -7 -7 -6 -6 -5 -5 -5 -5 -5 -5 -5 -5 -5 -5 -4 -4 -4 -4 -4 -4 -5 -4 -5 -5 -6 -6 -6 -6 -7 -7 -8 -8 -8 -8 -8 -8 -8 -8 -8
-6 -7 -6 -6 -6 -6 -7 -6 -6 -5 -5 -5 -5 -5 -6 -5 -5 -5 -5 -5 -5 -5 -5 -4 -3 -4 -4 -5 -5 -5 -5 -7 -7 -7 -7 -7 -8 -8 -8 -8 -8 -8 -8 -9
-7 -7 -6 -6 -7 -7 -7 -6 -6 -5 -4 -5 -5 -6 -6 -6 -5 -5 -6 -5 -5 -5 -5 -5 -4 -5 -5 -5 -5 -5 -6 -6 -7 -8 -8 -8 -8 -8 -8 -8 -8 -8 -9 -10
-7 -6 -7 -7 -7 -7 -6 -6 -6 -6 -4 -5 -5 -5 -5 -6 -7 -6 -6 -5 -5 -5 -5 -5 -4 -5 -5 -5 -5 -5 -6 -7 -8 -8 -8 -8 -8 -8 -8 -8 -9 -9 -9 -10
-8 -7 -7 -7 -7 -6 -7 -6 -6 -6 -4 -5 -5 -5 -6 -7 -7 -7 -6 -6 -6 -6 -5 -5 -5 -5 -5 -5 -6 -6 -6 -7 -8 -8 -8 -8 -8 -8 -8 -8 -9 -9 -10 -10
-9 -9 -7 -7 -7 -7 -6 -6 -6 -6 -6 -5 -5 -5 -6 -7 -5 -6 -6 -6 -6 -5 -4 -4 -5 -5 -5 -6 -7 -7 -7 -8 -8 -8 -8 -8 -8 -8 -8 -9 -9 -9 -10 -10
-9 -9 -8 -8 -7 -6 -6 -6 -6 -6 -6 -6 -4 -5 -6 -6 -7 -7 -6 -7 -7 -6 -5 -5 -5 -5 -5 -6 -6 -7 -7 -8 -8 -8 -8 -8 -8 -8 -9 -9 -9 -9 -10 -10
-9 -9 -9 -8 -7 -6 -6 -6 -6 -6 -6 -6 -6 -5 -5 -6 -6 -6 -6 -7 -7 -7 -6 -4 -5 -6 -5 -6 -7 -7 -7 -8 -8 -8 -8 -8 -8 -8 -8 -9 -9 -9 -9 -10
-9 -9 -9 -9 -8 -6 -6 -6 -6 -7 -6 -6 -6 -6 -5 -6 -6 -6 -6 -6 -7 -6 -5 -5 -5 -5 -5 -6 -7 -7 -8 -8 -8 -8 -8 -8 -8 -8 -8 -9 -9 -9 -10 -9
-9 -9 -9 -9 -9 -7 -5 -6 -7 -7 -7 -7 -6 -7 -7 -6 -6 -6 -6 -6 -6 -6 -5 -5 -6 -5 -5 -6 -6 -7 -8 -8 -8 -8 -8 -8 -8 -8 -8 -8 -9 -9 -10 -9
-9 -10 -10 -8 -6 -6 -6 -7 -7 -7 -7 -7 -7 -7 -7 -7 -6 -6 -5 -6 -6 -6 -5 -5 -5 -5 -5 -6 -7 -8 -8 -8 -8 -8 -8 -8 -8 -8 -8 -9 -9 -10 -9 -10
-10 -10 -10 -9 -8 -8 -8 -8 -7 -8 -7 -7 -7 -7 -7 -7 -6 -6 -6 -6 -6 -6 -6 -6 -6 -6 -6 -7 -7 -8 -8 -8 -8 -8 -8 -8 -8 -8 -9 -9 -10 -9 -9 -10
-10 -10 -10 -10 -8 -8 -8 -8 -8 -8 -8 -8 -8 -8 -6 -5 -5 -6 -5 -5 -6 -6 -6 -6 -6 -6 -7 -7 -8 -8 -8 -8 -8 -8 -8 -8 -8 -9 -9 -9 -9 -9 -10 -10
-10 -11 -11 -10 -9 -8 -8 -8 -8 -8 -8 -8 -8 -8 -6 -6 -5 -6 -5 -5 -5 -5 -6 -6 -6 -7 -7 -7 -8 -8 -8 -8 -8 -8 -8 -8 -9 -9 -9 -9 -10 -10 -10 -10
Height
5909 5912 5914 5916 5923 5921 5921 5924 5928 5926 5925 5928 5934 5934 5935 5936 5938 5936 5936 5935 5935 5936 5938 5938 5939 5940 5941 5942 5942 5942 5942 5942 5939 5940 5942 5944 5944 5944 5945 5943 5939 5937 5932 5930
5904 5907 5914 5917 5916 5920 5919 5921 5926 5926 5926 5927 5937 5936 5935 5937 5940 5938 5938 5937 5937 5938 5938 5938 5941 5942 5943 5944 5944 5944 5945 5944 5943 5944 5945 5946 5946 5947 5946 5943 5940 5938 5937 5935
5901 5909 5912 5914 5917 5919 5921 5924 5920 5926 5930 5933 5936 5935 5936 5937 5939 5939 5939 5940 5940 5939 5938 5940 5943 5944 5945 5947 5947 5948 5949 5947 5947 5947 5947 5948 5948 5948 5946 5943 5940 5940 5939 5936
5898 5905 5908 5912 5910 5916 5918 5923 5924 5927 5934 5937 5934 5934 5936 5938 5938 5940 5940 5941 5942 5942 5941 5940 5942 5945 5948 5949 5949 5950 5950 5950 5950 5950 5950 5950 5950 5948 5947 5944 5941 5939 5939 5938
5895 5899 5904 5907 5911 5919 5915 5917 5931 5937 5938 5940 5940 5938 5938 5938 5939 5940 5941 5941 5942 5943 5943 5943 5946 5947 5949 5950 5951 5952 5952 5953 5953 5952 5952 5951 5950 5949 5947 5944 5942 5942 5941 5938
5890 5897 5900 5904 5911 5918 5924 5929 5932 5934 5936 5936 5937 5938 5936 5938 5940 5941 5942 5942 5943 5944 5945 5947 5949 5950 5951 5952 5953 5954 5954 5954 5953 5953 5952 5952 5951 5950 5948 5945 5941 5938 5937 5936
5881 5888 5896 5901 5908 5913 5922 5925 5925 5930 5933 5935 5936 5938 5936 5939 5941 5940 5943 5944 5944 5946 5947 5949 5950 5952 5953 5953 5954 5954 5954 5954 5955 5954 5953 5953 5951 5950 5947 5945 5942 5938 5934 5931
5876 5880 5887 5893 5902 5911 5917 5920 5924 5927 5933 5934 5935 5935 5938 5938 5939 5939 5941 5944 5945 5947 5949 5950 5951 5953 5954 5955 5955 5955 5956 5955 5955 5954 5953 5952 5951 5949 5947 5945 5942 5938 5933 5929
5870 5878 5887 5889 5898 5907 5912 5915 5921 5924 5928 5932 5935 5937 5936 5936 5938 5939 5940 5943 5946 5947 5949 5951 5951 5952 5953 5954 5955 5955 5955 5954 5954 5953 5952 5951 5950 5949 5947 5944 5942 5939 5935 5930
5867 5875 5880 5888 5893 5899 5905 5913 5916 5917 5922 5926 5931 5933 5935 5934 5936 5937 5940 5943 5945 5948 5950 5951 5951 5952 5953 5954 5955 5954 5954 5953 5952 5952 5951 5950 5949 5947 5946 5943 5941 5940 5936 5932
5863 5867 5877 5882 5883 5891 5898 5903 5908 5914 5917 5922 5927 5929 5933 5934 5936 5937 5937 5940 5944 5946 5949 5950 5951 5951 5952 5952 5953 5954 5953 5952 5951 5950 5949 5948 5947 5946 5943 5941 5940 5938 5934 5930
5854 5860 5865 5873 5880 5888 5892 5899 5904 5907 5914 5918 5922 5924 5928 5927 5934 5938 5940 5938 5942 5944 5946 5948 5950 5951 5951 5951 5951 5951 5951 5950 5950 5949 5948 5947 5946 5944 5943 5941 5938 5934 5931 5928
5848 5850 5860 5867 5877 5880 5883 5892 5899 5904 5910 5913 5918 5924 5925 5928 5935 5936 5938 5937 5940 5941 5943 5945 5947 5950 5949 5949 5950 5949 5949 5949 5948 5947 5946 5945 5945 5944 5942 5939 5935 5932 5929 5924
5840 5846 5849 5855 5866 5876 5878 5884 5893 5898 5903 5910 5914 5918 5920 5928 5930 5932 5934 5936 5937 5939 5938 5939 5941 5945 5945 5946 5947 5947 5947 5947 5946 5944 5944 5942 5941 5940 5937 5935 5932 5928 5924 5919
5827 5833 5844 5853 5862 5871 5874 5879 5886 5891 5899 5903 5912 5917 5923 5926 5928 5929 5931 5934 5936 5934 5934 5934 5936 5939 5940 5942 5943 5943 5943 5943 5942 5942 5941 5939 5938 5936 5933 5931 5926 5922 5918 5913
5819 5825 5839 5845 5854 5863 5869 5875 5880 5885 5893 5900 5907 5913 5920 5920 5923 5923 5927 5929 5930 5932 5934 5935 5934 5936 5936 5937 5937 5938 5939 5938 5938 5938 5937 5935 5933 5931 5929 5925 5921 5917 5913 5906
5810 5817 5828 5836 5847 5856 5858 5866 5873 5880 5886 5894 5899 5908 5915 5915 5917 5918 5920 5921 5924 5924 5928 5932 5932 5932 5931 5932 5932 5933 5933 5934 5934 5934 5933 5931 5929 5927 5924 5920 5916 5911 5906 5900
5800 5810 5820 5829 5840 5839 5850 5860 5868 5875 5880 5886 5895 5901 5907 5910 5907 5910 5912 5915 5918 5919 5923 5928 5929 5928 5928 5928 5928 5929 5929 5929 5929 5929 5927 5926 5924 5922 5918 5914 5910 5906 5899 5894
5792 5802 5807 5815 5827 5836 5842 5852 5861 5869 5874 5880 5888 5895 5902 5906 5906 5905 5906 5909 5911 5912 5917 5924 5924 5923 5922 5922 5923 5924 5923 5924 5924 5923 5922 5920 5918 5915 5911 5907 5903 5899 5893 5888
5784 5795 5802 5808 5816 5819 5839 5850 5857 5862 5865 5874 5880 5888 5892 5899 5900 5902 5901 5902 5905 5906 5909 5920 5918 5917 5916 5917 5918 5918 5918 5918 5918 5916 5915 5914 5911 5907 5903 5900 5896 5891 5886 5881
5776 5785 5791 5799 5807 5818 5834 5846 5851 5851 5862 5868 5872 5879 5886 5889 5893 5895 5897 5895 5896 5897 5902 5908 5911 5911 5910 5911 5911 5911 5911 5912 5910 5909 5908 5906 5903 5899 5896 5892 5888 5883 5879 5874
5770 5776 5782 5791 5798 5807 5823 5839 5839 5848 5852 5861 5864 5867 5875 5882 5883 5887 5890 5890 5891 5894 5899 5902 5902 5903 5903 5903 5903 5904 5904 5904 5903 5902 5901 5898 5895 5891 5887 5884 5880 5876 5872 5867
5766 5772 5776 5783 5793 5803 5820 5828 5836 5839 5842 5850 5857 5860 5864 5871 5877 5881 5884 5883 5884 5886 5892 5895 5894 5894 5894 5894 5895 5895 5896 5896 5895 5894 5892 5890 5885 5882 5879 5875 5871 5868 5864 5858
5756 5764 5769 5776 5787 5798 5813 5817 5824 5828 5832 5841 5848 5854 5858 5862 5867 5869 5871 5872 5875 5880 5883 5885 5885 5885 5885 5885 5887 5887 5887 5888 5886 5885 5883 5880 5876 5874 5870 5866 5864 5860 5856 5851
5748 5759 5764 5769 5779 5789 5798 5809 5815 5819 5824 5831 5835 5840 5844 5850 5856 5859 5865 5867 5870 5873 5875 5875 5876 5877 5876 5877 5878 5879 5879 5879 5877 5876 5874 5871 5868 5865 5861 5859 5856 5853 5849 5843
5746 5753 5756 5763 5774 5784 5792 5802 5808 5810 5816 5821 5826 5830 5838 5844 5848 5851 5854 5858 5861 5864 5866 5867 5868 5869 5869 5869 5870 5870 5871 5870 5869 5868 5865 5861 5859 5857 5853 5852 5849 5846 5841 5835
Wind_Speed
23 22 16 21 15 18 8 28 20 20 7 10 12 6 7 6 2 8 11 12 13 12 13 13 14 16 16 17 18 18 21 20 25 19 15 15 17 17 16 15 16 22 25 25
30 22 18 15 6 7 4 21 22 17 10 8 4 11 13 9 4 4 9 12 13 13 14 13 14 15 15 17 20 18 17 21 22 21 18 17 17 17 17 17 19 20 21 20
27 19 23 17 14 13 7 17 22 15 10 3 4 8 12 11 7 4 7 9 15 13 11 14 16 16 16 17 16 16 16 17 18 19 17 16 16 17 18 19 21 21 22 19
26 24 29 21 23 5 11 16 10 9 8 5 5 11 8 9 9 3 7 9 11 13 17 18 18 17 17 15 14 12 14 16 17 15 14 14 15 16 19 20 20 23 22 22
26 30 34 23 17 12 8 3 12 10 10 8 9 15 9 8 12 5 6 11 11 15 19 23 19 17 15 14 13 13 12 12 11 12 13 16 17 18 19 21 24 26 26 27
30 30 34 26 19 17 10 10 15 14 12 13 16 12 16 14 3 6 3 10 12 12 14 12 12 15 12 12 10 9 10 10 12 14 15 15 15 15 19 23 26 30 32 28
36 37 37 29 23 27 24 21 22 22 15 12 12 18 17 17 13 4 4 6 10 11 10 8 7 8 8 8 8 10 11 11 11 12 13 13 14 17 20 24 28 31 34 34
38 41 42 38 31 23 27 27 17 9 15 10 7 10 15 18 18 8 5 7 5 7 9 7 5 5 6 6 6 7 7 8 10 11 12 14 15 18 21 25 29 29 32 34
40 37 39 44 34 29 27 34 20 13 15 7 7 14 16 18 15 10 7 9 8 4 3 8 6 3 4 5 7 8 9 10 12 13 14 16 16 19 22 26 26 28 28 32
39 38 37 37 34 34 35 35 30 30 26 22 11 18 19 17 17 12 12 9 9 8 5 3 2 3 1 3 6 9 11 13 14 14 14 16 18 20 22 23 26 26 27 32
39 39 36 37 42 38 40 42 38 34 33 26 18 14 14 21 16 13 14 14 10 12 9 7 6 4 5 7 7 7 12 14 15 16 15 17 20 21 23 24 27 27 29 31
43 45 38 40 36 35 35 43 38 36 35 26 23 23 27 23 19 19 19 20 20 13 13 11 10 8 6 8 10 12 13 15 16 15 15 17 20 21 22 22 26 29 32 34
44 48 40 30 31 38 42 35 40 40 36 34 23 10 5 21 25 23 26 13 13 14 18 17 15 9 6 9 12 13 14 15 15 15 15 17 20 21 19 24 28 30 32 36
47 47 48 43 37 29 40 32 41 38 41 33 25 16 10 11 26 25 20 13 14 18 22 22 17 12 13 14 15 14 14 12 14 16 18 20 22 22 24 28 32 32 41 48
50 57 49 42 35 27 30 31 29 46 42 40 29 19 17 21 24 25 24 21 19 17 23 25 23 21 21 21 18 17 15 14 15 18 20 22 24 25 27 31 36 38 46 48
44 57 51 45 40 37 35 32 29 28 43 41 34 25 16 21 25 19 26 27 22 21 20 26 29 25 25 25 23 20 17 15 17 20 22 24 26 29 31 35 41 42 47 47
43 51 57 53 44 41 34 40 32 26 37 44 40 27 22 20 18 26 22 20 22 27 28 23 25 24 27 27 25 23 20 18 18 23 24 26 30 33 34 39 44 46 48 46
43 43 54 60 51 54 48 41 35 26 33 43 44 38 27 28 23 20 22 21 26 34 34 20 23 24 24 25 25 25 21 20 23 24 25 29 34 35 37 42 44 46 47 45
50 49 50 58 59 57 55 46 33 34 27 34 50 44 37 26 24 21 30 25 29 33 33 17 17 20 20 22 26 23 19 20 21 22 27 31 32 33 36 40 41 44 45 45
53 51 53 53 63 67 55 48 38 35 33 25 36 53 50 40 36 33 33 39 37 39 41 20 19 21 22 22 23 22 20 20 21 26 30 33 34 36 39 42 44 43 47 45
57 49 54 54 58 62 59 48 41 43 36 37 35 31 54 47 41 39 39 39 42 45 46 33 24 25 26 25 26 27 26 25 28 32 34 35 38 41 45 47 47 44 43 49
54 50 51 51 56 60 56 54 52 43 39 44 35 38 39 53 49 45 50 52 54 54 44 29 31 28 27 29 28 28 30 32 34 37 36 39 42 44 45 46 46 43 42 48
54 45 49 55 57 56 47 49 57 46 44 47 44 44 46 45 52 58 55 59 58 54 38 33 32 32 32 31 31 32 35 35 35 38 40 41 42 44 47 45 42 41 44 45
58 49 50 51 49 46 45 36 44 46 51 47 50 50 49 47 46 45 49 55 57 47 36 32 33 35 34 33 33 34 35 35 38 40 39 41 43 45 42 38 36 42 45 48
61 55 55 53 49 42 47 48 46 41 38 41 40 39 41 38 37 36 39 42 37 32 34 35 37 36 37 37 36 36 35 38 39 39 40 38 37 40 35 35 39 43 47 51
64 57 50 56 52 47 46 49 53 45 44 45 45 49 39 35 32 32 34 34 32 31 34 38 37 34 38 39 38 39 38 39 39 39 36 34 36 36 36 37 40 44 49 53
Wind_Direction
191 197 187 191 186 231 194 150 143 97 67 99 4 71 77 74 77 114 119 118 112 108 107 106 105 103 104 102 96 83 77 67 75 87 84 72 60 51 40 35 27 33 37 38
199 196 163 165 196 347 206 103 105 86 56 83 13 73 54 69 66 112 126 124 115 110 109 112 112 109 108 103 92 82 80 74 72 79 74 60 49 40 33 28 25 29 31 32
207 172 175 179 189 204 103 117 110 81 95 34 331 102 51 31 38 73 116 130 120 95 94 122 122 112 104 101 97 89 82 68 68 63 58 51 41 33 29 24 19 22 21 17
203 182 183 185 182 237 270 93 58 62 133 71 327 300 301 349 9 58 119 129 112 84 99 120 117 110 111 105 90 79 63 57 54 51 45 38 33 31 29 24 20 18 14 3
191 186 184 174 167 208 245 233 160 195 154 189 211 252 265 331 38 18 113 117 101 93 102 104 106 113 100 97 83 65 53 47 47 46 39 31 31 27 25 23 15 9 9 8
199 192 187 168 180 187 193 150 202 249 211 198 201 271 303 333 24 57 144 123 109 102 109 111 90 104 87 87 78 65 45 43 39 34 28 25 23 20 23 21 11 2 1 4
197 197 189 169 189 190 196 220 182 200 216 138 156 231 293 296 322 63 165 155 126 120 114 123 108 87 81 80 67 50 42 37 29 19 12 11 12 18 21 16 9 1 357 357
206 198 195 174 192 190 204 190 192 208 160 114 129 219 255 293 304 289 196 151 144 140 138 149 132 100 69 61 48 29 20 20 16 14 12 8 6 6 4 4 5 5 358 353
213 210 198 183 183 195 214 221 184 193 168 225 217 239 250 273 293 288 218 180 160 166 163 164 152 93 51 28 4 0 354 353 359 358 357 1 355 357 359 1 1 359 356 353
213 217 206 192 186 198 208 211 195 205 212 212 217 212 251 271 296 308 293 224 187 177 221 207 175 171 177 10 358 348 340 339 338 340 343 349 346 351 352 353 351 351 347 351
212 216 204 199 200 202 208 204 201 202 208 202 210 243 175 249 268 314 285 275 236 214 221 234 247 279 329 330 324 339 335 330 325 326 332 345 341 340 344 347 346 345 344 347
206 215 204 212 207 202 222 212 201 206 200 197 200 221 205 212 250 267 268 275 260 241 250 250 252 265 293 317 328 333 334 321 318 318 329 336 335 341 340 339 335 333 332 341
201 213 208 194 212 212 219 217 205 202 197 188 202 179 331 194 229 239 253 230 251 263 258 261 255 251 294 313 321 318 318 312 310 315 326 326 330 335 340 333 330 329 334 331
200 206 212 201 207 219 223 218 213 205 202 183 188 178 232 229 216 234 241 233 248 273 274 271 276 296 308 308 309 306 311 310 310 312 323 320 324 331 332 330 324 324 332 332
206 204 210 205 193 216 235 235 223 213 199 194 178 182 239 202 211 225 241 256 265 277 271 277 285 295 300 300 296 299 308 306 309 314 319 319 327 326 326 326 323 332 334 329
210 208 204 204 192 195 221 243 235 235 204 196 177 194 215 246 225 247 257 258 275 281 284 290 280 285 286 289 293 295 297 301 306 314 315 322 321 320 317 318 317 323 327 334
214 208 196 199 185 189 195 224 241 238 206 199 187 183 213 231 222 240 244 257 281 285 281 290 268 273 277 280 285 288 290 294 301 306 307 313 315 312 313 311 317 322 321 329
215 213 205 202 186 197 196 200 223 240 229 199 190 179 207 236 253 259 260 268 269 272 275 278 258 262 263 268 274 277 282 290 294 296 299 303 307 308 306 306 310 314 318 325
206 209 213 209 195 205 197 191 192 221 233 226 199 183 194 216 243 266 260 258 268 272 272 267 270 269 264 260 263 268 274 277 279 285 290 296 303 304 302 304 309 312 313 320
202 211 217 214 208 208 205 193 190 205 226 234 219 194 190 206 221 241 253 260 263 268 272 266 271 264 264 262 260 257 265 274 280 284 284 292 295 297 299 302 306 309 311 315
201 205 215 220 220 214 206 195 189 200 202 216 220 214 206 214 224 230 241 252 260 265 270 277 274 264 268 261 254 253 261 272 275 278 283 291 295 298 298 300 302 304 309 311
203 205 212 219 220 221 211 196 203 204 205 208 214 215 223 215 223 231 236 244 250 256 266 271 269 269 266 261 260 262 267 270 273 281 287 292 297 298 298 299 301 303 306 311
201 208 215 221 221 220 212 210 207 210 216 212 211 215 219 225 224 230 239 242 249 256 261 261 264 270 270 266 262 263 270 274 277 283 288 298 297 300 298 299 299 302 306 310
197 206 218 222 218 220 206 199 204 215 225 229 228 226 228 233 239 241 240 244 248 253 257 260 261 265 264 263 262 262 268 276 281 288 298 300 300 297 300 296 299 301 304 311
197 204 212 221 222 209 212 198 194 212 216 214 219 226 228 228 226 231 240 245 250 249 253 254 258 261 260 262 263 266 270 279 290 297 300 300 297 298 295 296 298 300 306 312
203 205 212 221 225 223 215 204 197 207 215 213 221 227 233 234 241 238 244 247 247 248 254 257 261 261 257 262 265 270 276 284 292 298 302 297 295 294 291 295 299 303 306 308